Regional Weather Roundup
Issued by NWS

Home | Current Version | Previous Version | Text Only | Print | Product List | Glossary Off
Versions: 1 2 3 4 5 6 7 8 9 10 11 12 13 14 15 16 17 18 19 20 21 22 23 24 25 26 27 28 29 30 31 32 33 34 35 36 37 38 39 40 41 42 43 44 45 46 47 48 49 50

000
ASUS43 KMKX 210711
RWRWI

WISCONSIN REGIONAL WEATHER ROUNDUP
NATIONAL WEATHER SERVICE MILWAUKEE/SULLIVAN WI
200 AM CDT MON APR 21 2014

NOTE: "FAIR" INDICATES FEW OR NO CLOUDS BELOW 12,000 FEET WITH NO
SIGNIFICANT WEATHER AND/OR OBSTRUCTIONS TO VISIBILITY.

WIZ001-002-006>008-014>016-023>028-210800-
NORTHWEST WISCONSIN

CITY           SKY/WX    TMP DP  RH WIND       PRES   REMARKS
SUPERIOR ARPT  CLEAR     32  31  96 CALM      29.94F
ASHLAND        CLEAR     38  34  85 W3        29.96F
HAYWARD        PTCLDY    35  30  82 CALM      29.96F
SIREN          PTCLDY    51  32  48 SE3       29.94F
RICE LAKE      MOCLDY    46  44  91 SE3       29.98R
LADYSMITH      FOG       48  47  97 CALM      29.98F VSB 1/4
EAU CLAIRE     CLOUDY    54  52  93 NE3       29.96R
MENOMONIE      CLOUDY    53  52  96 CALM      29.96S FOG
NEW RICHMOND   CLOUDY    55  54  97 SE5       29.95S
OSCEOLA        MOCLDY    52  42  68 E3        29.97R
$$

WIZ003>005-009-010-017-018-210800-
NORTH CENTRAL WISCONSIN

CITY           SKY/WX    TMP DP  RH WIND       PRES   REMARKS
WOODRUFF       PTCLDY    37  32  84 CALM      29.98S
RHINELANDER    FOG       42  42 100 CALM      29.98S VSB 1/4
EAGLE RIVER    PTCLDY    34  34 100 CALM      29.97S
LAND O LAKES   PTCLDY    30  29  95 CALM      29.98F
PHILLIPS       PTCLDY    37  37  97 CALM      29.97S
TOMAHAWK       FOG       40  39  97 CALM      29.97F VSB 1/4
MEDFORD        FOG       49  49 100 CALM      29.97S VSB 1
MERRILL        CLOUDY    48  48 100 NE6       29.96F FOG
$$

WIZ029-030-035-036-043>047-210800-
CENTRAL WISCONSIN

CITY           SKY/WX    TMP DP  RH WIND       PRES   REMARKS
WAUSAU         CLOUDY    53  52  96 E3        29.95F FOG
MOSINEE        CLOUDY    50  50 100 E3        29.97S FOG
MARSHFIELD     CLOUDY    53  52  96 CALM      29.95S FOG
STEVENS POINT    N/A     49  49  98 CALM      29.96F FOG
WAUPACA        CLOUDY    54  52  94 CALM      29.96F FOG
WAUTOMA        LGT RAIN  51  51 100 CALM      29.96F FOG
WISC RAPIDS    CLOUDY    53  51  93 N5        29.96S FOG
CAMP DOUGLAS   DRIZZLE   53  53 100 W6        29.96R
$$

WIZ011>013-019>022-031-037>040-048>050-210800-
NORTHEAST WISCONSIN

CITY           SKY/WX    TMP DP  RH WIND       PRES   REMARKS
ANTIGO         CLOUDY    47  47  98 CALM      29.97F FOG
STURGEON BAY   MOCLDY    48  43  81 CALM      29.96F
GREEN BAY      LGT RAIN  50  50 100 NE8       29.94F FOG
MANITOWOC      CLOUDY    44  39  82 CALM      29.96F
APPLETON       CLOUDY    50  46  87 NW6       29.96R
CLINTONVILLE   CLOUDY    52  52 100 N5        29.96F FOG
OSHKOSH        CLOUDY    51  48  89 CALM      29.95S
$$

WIZ032>034-041-042-053>061-210800-
SOUTHWEST WISCONSIN

CITY           SKY/WX    TMP DP  RH WIND       PRES   REMARKS
LA CROSSE      CLOUDY    53  52  96 CALM      29.96S FOG
SPARTA         LGT RAIN  54  53  97 CALM      29.97S
VIROQUA        CLOUDY    57  55  94 SW7       29.96F
BOSCOBEL       CLOUDY    56  54  93 SW5       29.96F FOG
PRAIRIE DU CHI CLOUDY    55  54  95 CALM      29.97S FOG
PLATTEVILLE    FAIR      59  49  68 W3        29.99S
$$

WIZ056-057-062-063-064-067-068-210800-
SOUTH CENTRAL WISCONSIN

CITY           SKY/WX    TMP DP  RH WIND       PRES   REMARKS
BARABOO/DELLS  LGT RAIN  55  51  88 CALM      29.95S
LONE ROCK      CLOUDY    54  54 100 CALM      29.95F FOG
WATERTOWN      MOCLDY    58  44  58 S5        29.95S
MADISON        CLOUDY    59  51  75 SW5       29.96S
MIDDLETON      CLOUDY    60  50  68 CALM      29.96F
MONROE         DRIZZLE   62  48  60 SW13      29.98S
JANESVILLE     CLOUDY    64  41  42 SW12      29.98R
$$

WIZ051-052-058>065-066-070>072-210800-
SOUTHEAST WISCONSIN

CITY           SKY/WX    TMP DP  RH WIND       PRES   REMARKS
MILWAUKEE      MOCLDY    63  41  44 S8        29.98S
WAUKESHA       MOCLDY    59  41  51 S7        29.98S
MILWAUKEE/TIMM MOCLDY    61  37  41 S6        29.97F
RACINE         MOCLDY    57  41  55 S6        30.00S
BURLINGTON     LGT RAIN  59  45  58 SW8       29.98S
KENOSHA        CLOUDY    60  42  51 S7        29.99S
FOND DU LAC    MOCLDY    49  45  86 NW5       29.94F
SHEBOYGAN      CLOUDY    46  40  79 CALM      29.94F
WEST BEND      MOCLDY    50  41  71 S3        29.95F
JUNEAU         MOCLDY    58  42  54 SW5       29.96S
$$

LSZ147-162-210800-
LAKE SUPERIOR

STATION/POSITION TIME  TEMP    WIND        PRES    WAVE
                       AIR SEA DIR/SP/G            HT/PER
                 (UTC) (F)     (DEG/KT/KT) (MB)    (FT/S)
DEVILS ISLAND    0700   49     290/  8/  8 1014.2F
PORT WING        0600          300/  6/  8 1014.6S
SAXON HARBOR     0600             CALM     1014.6
$$

LMZ867-665-643>646-210800-
LAKE MICHIGAN

STATION/POSITION TIME  TEMP    WIND        PRES    WAVE
                       AIR SEA DIR/SP/G            HT/PER
                 (UTC) (F)     (DEG/KT/KT) (MB)    (FT/S)
NORTHPORT PIER   0600   39     180/  2/  5 1015.6F
SISTER BAY       0609   44        CALM       N/A
KEWAUNEE LAKESHO 0600   42     150/  2/  3 1015.5F
SHEBOYGAN LAKESH 0700   48      CALM  /  1 1014.5F
PORT WASHINGTON  0600   45        CALM     1015.2F
MILWAUKEE LAKESH 0600   47     140/  2/  4   N/A
KENOSHA   LAKESH 0600   47     180/  9/ 11   N/A
$$

TC  - TEMPERATURE IN CELSIUS
VSB - VISIBILITY IN STATUTE MILES
WCI - WIND CHILL INDEX
HX  - HEAT INDEX




USA.gov is the U.S. government's official web portal to all federal, state and local government web resources and services.